• In Uzbekistan
  • List of Countries
  • For 7 days
  • Water Temperature
  • Satellite Maps
  • Weather Map
  • Weather Widgets
  • user-avatar
    Login

    Hourly Weather Shaki

    Today, 11 December, Tuesday

    Time Temperature Precipitation Wind Pressure Humidity
    00:00 +7°C° 0 mm 2 mps 733 mmHg 54%
    01:00 +7°C° 0 mm 2 mps 733 mmHg 53%
    02:00 +7°C° 0 mm 2 mps 733 mmHg 52%
    03:00 +7°C° 0 mm 2 mps 733 mmHg 50%
    04:00 +7°C° 0 mm 2 mps 733 mmHg 50%
    05:00 +7°C° 0 mm 2 mps 733 mmHg 49%
    06:00 +7°C° 0 mm 2 mps 733 mmHg 49%
    07:00 +8°C° 0 mm 2 mps 733 mmHg 48%
    08:00 +10°C° 0 mm 1 mps 733 mmHg 46%
    09:00 +12°C° 0 mm 1 mps 733 mmHg 45%
    10:00 +13°C° 0 mm 1 mps 733 mmHg 43%
    11:00 +14°C° 0 mm 1 mps 732 mmHg 41%
    12:00 +15°C° 0 mm 2 mps 732 mmHg 38%
    13:00 +15°C° 0 mm 2 mps 732 mmHg 39%
    14:00 +15°C° 0 mm 2 mps 731 mmHg 39%
    15:00 +15°C° 0 mm 2 mps 731 mmHg 40%
    16:00 +14°C° 0 mm 2 mps 731 mmHg 43%
    17:00 +13°C° 0 mm 2 mps 731 mmHg 45%
    18:00 +10°C° 0 mm 2 mps 731 mmHg 48%
    19:00 +10°C° 0 mm 2 mps 731 mmHg 49%
    20:00 +10°C° 0 mm 2 mps 731 mmHg 49%
    21:00 +10°C° 0 mm 2 mps 730 mmHg 50%
    22:00 +10°C° 0 mm 2 mps 730 mmHg 49%
    23:00 +10°C° 0 mm 2 mps 730 mmHg 48%

    Tomorrow, 12 December, Wednesday

    Time Temperature Precipitation Wind Pressure Humidity
    00:00 +10°C° 0 mm 2 mps 730 mmHg 47%
    01:00 +10°C° 0 mm 2 mps 731 mmHg 47%
    02:00 +10°C° 0 mm 3 mps 731 mmHg 47%
    03:00 +10°C° 0 mm 3 mps 732 mmHg 47%
    04:00 +9°C° 0 mm 3 mps 732 mmHg 49%
    05:00 +9°C° 0 mm 3 mps 733 mmHg 50%
    06:00 +8°C° 0 mm 4 mps 733 mmHg 51%
    07:00 +9°C° 0 mm 3 mps 733 mmHg 49%
    08:00 +10°C° 0 mm 3 mps 734 mmHg 47%
    09:00 +11°C° 0 mm 3 mps 734 mmHg 46%
    10:00 +12°C° 0 mm 3 mps 733 mmHg 42%
    11:00 +13°C° 0 mm 3 mps 733 mmHg 39%
    12:00 +14°C° 0 mm 3 mps 732 mmHg 36%
    13:00 +14°C° 0.1 mm 3 mps 732 mmHg 39%
    14:00 +15°C° 0.1 mm 2 mps 731 mmHg 43%
    15:00 +14°C° 0.1 mm 2 mps 731 mmHg 47%
    16:00 +13°C° 0.1 mm 2 mps 731 mmHg 49%
    17:00 +13°C° 0.1 mm 2 mps 731 mmHg 51%
    18:00 +12°C° 0.1 mm 2 mps 730 mmHg 53%
    19:00 +10°C° 0.1 mm 2 mps 730 mmHg 54%
    20:00 +10°C° 0.1 mm 2 mps 730 mmHg 55%
    21:00 +10°C° 0.1 mm 2 mps 730 mmHg 57%
    22:00 +10°C° 0 mm 2 mps 730 mmHg 57%
    23:00 +10°C° 0 mm 2 mps 730 mmHg 57%

    Day after tomorrow, 13 December, Thursday

    Time Temperature Precipitation Wind Pressure Humidity
    00:00 +10°C° 0 mm 2 mps 730 mmHg 58%
    01:00 +10°C° 0 mm 2 mps 730 mmHg 59%
    02:00 +10°C° 0 mm 2 mps 730 mmHg 60%
    03:00 +10°C° 0 mm 3 mps 730 mmHg 62%
    04:00 +9°C° 0.1 mm 3 mps 730 mmHg 63%
    05:00 +9°C° 0.1 mm 3 mps 730 mmHg 63%
    06:00 +9°C° 0.1 mm 3 mps 730 mmHg 64%
    07:00 +10°C° 0.1 mm 3 mps 730 mmHg 62%
    08:00 +10°C° 0.1 mm 2 mps 731 mmHg 59%
    09:00 +12°C° 0.1 mm 2 mps 731 mmHg 57%
    10:00 +12°C° 0 mm 3 mps 731 mmHg 51%
    11:00 +12°C° 0 mm 4 mps 732 mmHg 46%
    12:00 +13°C° 0 mm 5 mps 732 mmHg 40%
    13:00 +13°C° 0 mm 5 mps 732 mmHg 41%
    14:00 +12°C° 0 mm 5 mps 733 mmHg 43%
    15:00 +10°C° 0 mm 6 mps 733 mmHg 44%
    16:00 +9°C° 0 mm 5 mps 734 mmHg 43%
    17:00 +8°C° 0 mm 5 mps 735 mmHg 43%
    18:00 +7°C° 0 mm 4 mps 736 mmHg 42%
    19:00 +7°C° 0 mm 4 mps 737 mmHg 42%
    20:00 +6°C° 0 mm 4 mps 737 mmHg 42%
    21:00 +6°C° 0 mm 4 mps 738 mmHg 42%
    22:00 +6°C° 0 mm 4 mps 738 mmHg 41%
    23:00 +5°C° 0 mm 3 mps 738 mmHg 41%

    14 December, Friday

    Time Temperature Precipitation Wind Pressure Humidity
    00:00 +5°C° 0 mm 3 mps 739 mmHg 41%
    01:00 +5°C° 0 mm 3 mps 739 mmHg 40%
    02:00 +4°C° 0 mm 3 mps 739 mmHg 38%
    03:00 +4°C° 0 mm 3 mps 740 mmHg 37%
    04:00 +4°C° 0 mm 3 mps 740 mmHg 38%
    05:00 +4°C° 0 mm 2 mps 741 mmHg 40%
    06:00 +4°C° 0 mm 2 mps 741 mmHg 41%
    07:00 +5°C° 0 mm 2 mps 741 mmHg 40%
    08:00 +6°C° 0 mm 2 mps 742 mmHg 40%
    09:00 +7°C° 0 mm 1 mps 742 mmHg 40%
    10:00 +8°C° 0 mm 1 mps 741 mmHg 37%
    11:00 +9°C° 0 mm 1 mps 741 mmHg 35%
    12:00 +9°C° 0 mm 2 mps 741 mmHg 32%
    13:00 +9°C° 0 mm 2 mps 740 mmHg 33%
    14:00 +9°C° 0 mm 2 mps 740 mmHg 33%
    15:00 +9°C° 0 mm 2 mps 740 mmHg 33%
    16:00 +8°C° 0 mm 2 mps 740 mmHg 36%
    17:00 +7°C° 0 mm 2 mps 741 mmHg 39%
    18:00 +6°C° 0 mm 2 mps 741 mmHg 42%
    19:00 +7°C° 0 mm 1 mps 741 mmHg 45%
    20:00 +7°C° 0 mm 1 mps 741 mmHg 48%
    21:00 +7°C° 0 mm 1 mps 741 mmHg 51%
    22:00 +6°C° 0 mm 2 mps 741 mmHg 52%
    23:00 +6°C° 0 mm 2 mps 741 mmHg 54%

    15 December, Saturday

    Time Temperature Precipitation Wind Pressure Humidity
    00:00 +5°C° 0 mm 2 mps 741 mmHg 56%
    01:00 +5°C° 0 mm 2 mps 741 mmHg 57%
    02:00 +5°C° 0 mm 2 mps 741 mmHg 59%
    03:00 +4°C° 0 mm 2 mps 742 mmHg 60%
    04:00 +3°C° 0 mm 3 mps 742 mmHg 59%
    05:00 +3°C° 0 mm 3 mps 742 mmHg 59%
    06:00 +3°C° 0 mm 3 mps 742 mmHg 58%
    07:00 +3°C° 0 mm 3 mps 743 mmHg 55%
    08:00 +4°C° 0 mm 3 mps 743 mmHg 52%
    09:00 +5°C° 0 mm 3 mps 743 mmHg 49%
    10:00 +7°C° 0 mm 3 mps 743 mmHg 45%
    11:00 +8°C° 0 mm 3 mps 743 mmHg 41%
    12:00 +9°C° 0 mm 3 mps 743 mmHg 38%
    13:00 +9°C° 0 mm 3 mps 743 mmHg 37%
    14:00 +9°C° 0 mm 3 mps 743 mmHg 37%
    15:00 +9°C° 0 mm 3 mps 743 mmHg 37%
    16:00 +8°C° 0 mm 2 mps 744 mmHg 39%
    17:00 +7°C° 0 mm 2 mps 744 mmHg 40%
    18:00 +5°C° 0 mm 2 mps 745 mmHg 42%
    19:00 +6°C° 0 mm 1 mps 745 mmHg 42%
    20:00 +6°C° 0 mm 1 mps 745 mmHg 42%
    21:00 +6°C° 0 mm 1 mps 745 mmHg 42%
    22:00 +5°C° 0 mm 1 mps 745 mmHg 43%
    23:00 +5°C° 0 mm 1 mps 745 mmHg 43%

    16 December, Sunday

    Time Temperature Precipitation Wind Pressure Humidity
    00:00 +5°C° 0 mm 1 mps 745 mmHg 44%
    01:00 +5°C° 0 mm 1 mps 745 mmHg 45%
    02:00 +5°C° 0 mm 1 mps 745 mmHg 46%
    03:00 +4°C° 0 mm 1 mps 745 mmHg 47%
    04:00 +4°C° 0 mm 1 mps 745 mmHg 48%
    05:00 +4°C° 0 mm 1 mps 745 mmHg 49%
    06:00 +4°C° 0 mm 1 mps 745 mmHg 49%
    07:00 +5°C° 0 mm 1 mps 745 mmHg 48%
    08:00 +6°C° 0 mm 1 mps 745 mmHg 47%
    09:00 +7°C° 0 mm 1 mps 746 mmHg 46%
    10:00 +8°C° 0 mm 1 mps 745 mmHg 45%
    11:00 +9°C° 0 mm 1 mps 745 mmHg 44%
    12:00 +10°C° 0 mm 1 mps 744 mmHg 43%
    13:00 +10°C° 0 mm 1 mps 744 mmHg 45%
    14:00 +10°C° 0 mm 1 mps 744 mmHg 46%
    15:00 +10°C° 0 mm 1 mps 744 mmHg 47%
    16:00 +9°C° 0 mm 1 mps 744 mmHg 50%
    17:00 +8°C° 0 mm 1 mps 744 mmHg 52%
    18:00 +7°C° 0 mm 1 mps 745 mmHg 55%
    19:00 +7°C° 0 mm 1 mps 744 mmHg 56%
    20:00 +6°C° 0 mm 1 mps 744 mmHg 56%
    21:00 +6°C° 0 mm 1 mps 744 mmHg 56%
    22:00 +6°C° 0 mm 1 mps 744 mmHg 58%
    23:00 +6°C° 0 mm 1 mps 744 mmHg 60%
    Show more